Regional Weather Roundup
Issued by NWS Albany, NY

Home | Current Version | Previous Version | Graphics & Text | Print | Product List | Glossary Off
Versions: 1 2 3 4 5 6 7 8 9 10 11 12 13 14 15 16 17 18 19 20 21 22 23 24 25 26 27

000
ASUS41 KALY 190110
RWRALY

NEW YORK STATE HOURLY WEATHER ROUNDUP
NATIONAL WEATHER SERVICE ALBANY NY
900 PM EDT FRI AUG 18 2017

NOTE: "FAIR" INDICATES FEW OR NO CLOUDS BELOW 12,000 FEET WITH NO
SIGNIFICANT WEATHER AND/OR NO OBSTRUCTIONS TO VISIBILITY.

NYZ032-033-038>043-046>054-057>066-NYZ062>081-082-084-190200-
EAST


CITY           SKY/WX    TMP DP  RH WIND       PRES   REMARKS
ALBANY         MOCLDY    76  73  91 VRB5      29.75S
GLENS FALLS    CLOUDY    74  71  91 S7        29.74S
POUGHKEEPSIE   CLOUDY    74  72  93 CALM      29.76S
NEWBURGH       CLOUDY    72  72 100 CALM      29.79F
MONTGOMERY     CLOUDY    72  70  93 CALM      29.76F
WHITE PLAINS   CLOUDY    76  74  93 S5        29.77F FOG
ISLIP          LGT RAIN  77  77 100 S12G22    29.78F FOG
NEW YORK CITY  CLOUDY    77  73  87 S10       29.76F
CENTRAL PARK   CLOUDY    73  71  93 SW8       29.80F
$$

NYZ005>009-017-018-044>046-055-056-190200-
CENTRAL


CITY           SKY/WX    TMP DP  RH WIND       PRES   REMARKS
FULTON         CLEAR     74  64  71 W6        29.74R
SYRACUSE       MOCLDY    76  63  64 SW7       29.74R
ROME           CLOUDY    71  69  93 SE3       29.77R
ELMIRA         CLEAR     76  68  76 SW6       29.77R
BINGHAMTON     CLEAR     71  66  84 SW5       29.80R
MONTICELLO     CLOUDY    71  70  96 CALM      29.83F
$$

NYZ026>034-041>043-087-190200-
NORTH


CITY           SKY/WX    TMP DP  RH WIND       PRES   REMARKS
WATERTOWN      PTCLDY    74  68  81 W7        29.72R
FORT DRUM      NOT AVBL
OGDENSBURG     FAIR      74  65  74 SW5       29.69R
MASSENA        CLOUDY    75  65  70 SW6       29.69R
SARANAC LAKE   CLOUDY    67  66  97 CALM      29.77R
PLATTSBURGH    PTCLDY    74  70  87 E6        29.70S
$$

NYZ001>004-010>016-019>021-085-190200-
WEST


CITY           SKY/WX    TMP DP  RH WIND       PRES   REMARKS
NIAGARA FALLS  CLOUDY    76  61  59 W13       29.77R
BUFFALO        CLOUDY    73  67  81 SW13G24   29.78R
DUNKIRK        CLOUDY    73  67  81 SW10      29.81R
JAMESTOWN      CLOUDY    69  61  75 W8        29.87R
WELLSVILLE     MOCLDY    71  62  73 NW8       29.88R
ROCHESTER      MOCLDY    74  64  71 W12G22    29.77R
PENN YAN       MOCLDY    75  61  61 W8G17     29.79R
$$

             KEY
       WCI = WIND CHILL INDEX
       VSB = VISIBILITY
       HX  = HEAT INDEX
$$




USA.gov is the U.S. government's official web portal to all federal, state and local government web resources and services.